RH
66 77 72 74 80 79 65 47 43 38 41 51 53 60 62 65 73 74 76 74 64 64 73 77 76 74 76 81 77 75 74 64 48 40 46 50 52 61 63 59 60 64 63 67 66 57 49 40 37 34 38 49 56 73 79 72 72 79 74 37 9 9
66 81 77 76 81 83 70 53 53 54 58 61 57 59 57 62 71 71 71 69 64 67 79 79 77 78 74 73 72 76 80 75 60 40 41 48 51 56 58 61 65 68 66 66 67 60 54 47 45 42 43 51 59 75 78 73 74 79 82 49 13 11
71 82 80 77 78 80 72 58 55 58 68 72 68 66 58 58 64 64 62 69 74 75 82 77 77 83 73 71 77 82 82 72 59 43 34 36 48 52 51 63 70 73 70 65 71 67 61 55 50 45 50 64 72 78 75 71 73 76 85 60 18 12
81 83 83 82 80 78 72 62 57 57 64 72 73 69 60 59 66 68 64 71 82 82 83 80 83 85 75 78 84 85 81 66 51 40 34 32 42 53 56 66 76 78 71 69 78 76 72 67 57 54 64 78 79 78 74 72 74 76 87 73 38 31
87 79 83 85 86 83 76 77 77 70 69 75 79 81 76 69 73 81 77 70 79 85 84 87 85 81 80 83 84 82 77 70 59 46 46 47 40 49 63 69 80 81 68 69 80 81 80 70 64 71 80 84 80 77 75 76 80 82 87 74 53 55
87 76 80 82 89 89 84 90 94 85 83 88 92 97 90 76 77 86 83 71 76 84 82 85 80 75 81 88 87 84 76 69 62 49 57 71 48 35 56 69 80 83 71 71 78 80 73 62 69 79 81 80 79 79 76 81 85 89 90 69 56 63
86 80 81 81 89 92 88 91 92 86 86 95 98 98 90 78 82 90 86 77 79 83 81 82 78 77 82 87 90 89 79 65 56 46 53 77 59 35 58 78 82 83 82 82 80 80 69 65 78 79 76 78 79 79 79 85 87 90 90 70 60 67
82 81 85 84 86 89 90 89 90 84 80 90 91 87 85 79 82 92 91 80 78 84 84 82 80 81 84 87 92 95 88 76 74 63 48 63 64 50 65 82 84 80 80 80 80 83 79 75 80 76 74 77 79 80 81 85 90 93 88 75 64 67
83 86 89 86 83 87 93 91 91 89 83 89 89 83 83 79 80 92 94 83 78 82 84 85 83 80 85 92 95 94 85 77 81 71 52 67 80 72 74 82 85 76 68 72 76 80 81 78 74 72 73 75 77 81 86 87 91 91 84 81 69 61
88 87 86 85 82 85 96 95 87 83 84 89 87 82 83 82 82 86 89 88 82 81 83 84 81 81 89 94 87 76 67 62 62 57 54 75 86 76 80 84 77 68 66 71 75 75 78 77 72 70 71 72 76 80 85 85 87 85 77 83 76 62
88 85 88 89 79 79 96 98 80 70 81 91 83 77 81 81 79 78 81 84 81 83 88 87 87 89 90 86 73 60 57 56 53 48 47 60 65 61 72 76 65 66 70 70 72 74 76 75 72 72 72 72 76 79 83 84 84 80 72 79 82 74
88 90 92 89 77 80 95 94 79 71 82 91 85 85 86 76 73 76 79 80 81 83 80 82 91 89 77 68 59 52 52 53 53 56 55 55 56 63 75 75 71 74 73 70 72 75 76 77 75 73 75 76 77 78 81 85 86 83 78 80 86 86
81 92 91 85 78 85 93 91 87 83 85 85 87 94 91 79 73 73 78 80 80 78 72 76 85 80 68 61 56 53 58 61 64 70 70 61 58 73 85 86 87 84 78 73 75 79 79 80 80 77 78 80 79 80 80 82 85 84 85 84 86 89
74 92 91 79 72 81 90 92 90 88 88 82 83 89 88 87 80 71 76 80 74 74 75 76 77 72 69 66 62 64 71 73 73 77 77 68 67 81 91 91 89 86 82 77 76 83 80 77 82 81 80 81 81 83 82 81 84 85 87 86 85 87
76 92 90 75 68 78 88 87 84 88 91 83 81 86 87 87 84 78 77 78 76 77 77 74 73 70 69 68 65 68 73 73 71 76 79 74 77 88 91 89 85 84 82 78 80 84 79 77 84 85 83 84 87 88 86 84 85 87 89 87 86 86
84 92 90 82 75 78 85 84 85 92 89 84 83 84 88 85 83 83 80 79 79 80 76 76 77 70 69 68 65 67 69 68 69 75 81 77 82 90 89 88 90 87 80 79 83 82 79 81 88 90 87 90 94 91 89 89 89 90 89 83 84 87
88 95 93 88 81 79 85 84 83 87 86 87 84 82 88 88 85 83 83 81 75 78 79 79 79 72 69 67 67 73 70 69 71 77 85 84 85 89 92 95 92 85 78 77 79 79 81 85 90 93 91 97 100 95 93 95 94 91 89 83 81 84
91 96 95 89 79 79 87 86 82 84 88 86 83 88 91 90 91 83 80 80 74 80 81 77 77 72 68 65 70 78 70 69 74 77 83 86 87 85 89 94 88 82 78 76 79 79 81 87 91 93 96 100 97 93 95 96 93 89 89 88 82 80
89 90 94 90 76 76 88 93 91 92 93 87 84 92 89 83 89 82 77 79 75 76 80 81 79 72 69 67 72 75 65 66 74 76 77 83 86 83 88 92 85 80 72 72 84 82 80 92 95 91 94 93 86 87 89 89 86 85 90 91 86 81
83 84 90 90 79 77 86 92 92 93 92 87 83 85 83 80 84 83 79 77 74 71 76 83 77 71 73 69 66 64 62 69 78 78 80 86 85 83 92 93 86 83 70 70 83 82 84 95 94 89 88 84 83 83 81 79 76 81 90 92 89 88
79 81 86 91 88 83 85 89 91 92 91 87 84 83 83 82 81 85 84 80 78 72 73 78 74 71 72 67 60 56 61 73 82 83 84 88 85 85 92 88 86 88 80 79 82 84 93 91 84 88 89 85 85 80 79 80 80 86 92 90 91 89
74 77 87 92 94 91 88 89 90 93 92 87 85 84 86 86 84 85 84 83 80 72 72 73 68 64 62 62 55 52 61 70 80 87 84 82 79 81 84 81 87 90 85 85 81 83 91 85 78 83 86 85 86 83 84 87 86 90 92 91 92 86
72 80 95 93 92 95 93 91 89 90 91 88 85 85 85 88 88 83 78 80 73 69 75 72 69 63 56 57 52 54 65 68 78 87 80 75 74 76 75 79 91 92 84 85 85 84 83 81 81 82 82 85 88 86 86 88 84 83 88 92 93 88
74 86 101 95 90 95 95 92 89 87 86 87 89 88 86 87 89 83 79 79 70 71 77 70 72 70 59 58 56 65 79 78 85 89 79 75 76 76 77 81 90 92 87 82 83 85 81 81 82 79 82 86 86 84 86 90 85 82 86 89 90 89
77 91 101 95 89 89 91 89 84 83 83 85 91 91 87 89 91 86 85 87 75 72 74 65 71 76 69 70 68 75 86 87 93 91 79 77 77 77 79 84 89 90 90 83 77 80 83 85 80 76 83 87 86 82 83 88 88 87 87 85 86 89
81 93 100 96 92 88 87 83 77 78 79 77 82 85 86 89 91 89 90 93 82 77 81 76 81 88 82 80 78 80 83 85 93 87 74 75 80 82 82 87 91 85 83 86 83 84 89 89 82 78 80 82 85 84 80 83 86 88 87 85 85 88
84 90 99 98 94 92 89 83 77 78 77 71 71 79 87 87 88 90 90 91 84 82 89 84 85 96 92 82 79 81 80 82 95 89 72 74 81 86 86 87 92 85 81 86 82 80 86 87 84 83 79 75 77 82 81 80 82 84 86 88 87 86
85 85 93 93 89 90 92 89 84 83 81 74 72 77 85 87 88 90 89 91 90 87 89 87 89 97 96 90 82 82 82 82 95 95 80 79 80 82 86 88 90 85 84 88 76 72 81 82 82 83 80 74 71 79 85 82 80 81 84 89 89 87
88 87 90 87 83 87 91 89 85 86 84 77 75 80 86 89 88 84 79 84 89 85 82 85 89 87 90 97 87 81 82 75 82 92 89 90 85 82 86 92 92 81 80 89 79 76 82 81 84 84 78 72 69 80 86 79 77 80 83 86 86 85
91 90 90 84 80 84 88 85 79 80 78 74 80 87 90 85 78 74 71 74 80 79 76 78 82 80 82 92 83 75 78 74 77 83 86 94 95 91 88 88 91 79 76 86 82 80 85 85 88 84 75 66 63 77 83 76 78 82 85 85 79 77
92 90 91 85 77 80 84 80 75 69 63 71 85 87 85 78 73 75 75 76 77 76 77 75 73 74 76 82 81 76 74 75 78 76 80 93 94 95 92 83 85 80 73 79 78 78 85 88 86 81 78 71 66 77 80 78 82 80 81 82 75 72
94 94 92 87 77 75 77 73 67 61 58 75 89 85 82 78 75 79 77 78 79 80 82 74 66 66 67 71 76 75 73 74 76 70 78 92 89 90 95 86 83 82 77 76 77 80 83 80 75 75 81 77 74 81 81 82 85 77 74 76 74 71
95 99 95 90 81 74 75 69 58 59 70 82 87 87 85 77 76 80 78 79 83 88 87 77 71 66 57 59 66 67 70 73 74 70 75 89 90 89 92 88 86 88 88 89 88 91 92 80 69 73 80 74 71 78 82 85 85 78 75 74 74 70
95 101 96 93 88 78 78 74 59 63 78 84 84 86 77 66 75 83 82 83 84 87 86 81 84 77 61 62 64 60 62 66 71 74 75 82 89 91 91 89 94 96 94 95 93 93 97 88 73 70 75 72 69 73 75 76 75 74 74 72 74 70
94 101 97 90 89 86 83 79 71 73 83 84 83 86 75 66 79 86 83 83 82 82 83 83 87 79 66 64 57 48 52 58 63 71 75 75 79 87 88 90 99 100 97 99 94 92 98 95 81 72 73 74 72 71 70 67 66 69 72 74 75 70
94 98 94 83 82 84 78 74 75 77 83 84 81 84 83 79 84 84 80 83 83 83 84 82 77 67 60 60 53 47 55 58 55 60 69 70 75 81 78 83 96 94 93 101 100 95 98 97 90 82 78 74 69 70 70 68 70 70 72 76 76 69
95 93 87 80 77 79 74 71 73 75 80 82 81 83 86 85 82 80 83 84 80 78 76 69 60 53 51 51 46 52 70 72 57 53 60 67 81 87 77 84 96 87 84 95 97 95 99 99 88 79 77 70 63 67 69 70 74 74 73 76 73 67
Wind_Speed
17 15 15 13 12 12 12 12 13 14 14 15 15 16 16 16 16 15 15 15 15 15 16 15 14 13 12 12 11 10 10 10 12 14 15 16 16 15 15 14 13 12 11 11 11 11 11 11 11 12 13 12 13 14 11 9 9 8 5 4 6 7
18 16 15 14 13 13 13 13 13 13 13 14 15 15 15 16 16 16 15 15 16 17 17 17 15 13 12 11 11 11 10 8 9 12 14 15 15 14 13 13 12 11 11 10 10 9 9 10 9 10 9 8 10 10 8 9 9 8 5 3 5 7
18 17 16 15 14 13 13 13 12 13 13 13 14 14 14 15 15 16 16 16 17 19 19 18 17 15 13 12 11 11 9 7 7 10 12 13 14 13 12 11 11 11 10 10 10 9 7 7 8 7 6 7 9 8 8 9 8 7 5 3 5 6
18 18 17 15 15 14 13 13 12 13 14 14 15 15 15 17 17 17 17 18 17 17 19 19 18 16 15 14 12 10 7 5 6 7 9 11 12 12 11 10 10 10 9 9 9 8 7 8 7 6 5 6 8 9 8 8 8 8 5 4 5 6
19 18 18 16 15 15 14 13 13 14 14 14 15 16 17 19 19 19 20 20 18 16 19 19 18 17 16 13 10 8 6 5 6 7 8 9 10 11 11 10 9 9 9 8 8 8 8 7 7 6 6 8 9 9 9 8 9 8 5 3 4 5
20 20 18 15 14 15 15 14 14 15 14 14 15 15 17 19 19 20 20 20 19 18 18 19 18 17 16 13 9 8 8 7 6 7 7 7 8 9 10 9 9 9 9 8 7 7 7 8 9 9 7 8 9 9 9 8 9 8 4 4 5 5
20 20 18 16 14 13 14 16 15 15 14 14 15 15 16 16 17 19 18 18 19 19 19 18 17 17 14 13 11 8 8 7 6 6 8 8 8 8 9 9 8 9 9 9 8 8 10 12 11 11 9 8 9 9 8 8 9 9 6 6 7 5
20 19 18 18 17 14 14 15 15 14 15 15 15 15 15 14 15 17 16 16 18 18 18 17 16 16 14 12 12 10 9 8 7 8 8 9 8 8 11 11 10 11 10 9 10 10 9 10 9 9 10 8 9 9 9 9 10 10 6 6 6 4
21 20 19 18 19 16 13 13 14 15 16 15 14 15 16 15 16 16 15 16 18 18 18 17 17 16 13 12 13 12 12 11 10 9 8 8 7 8 10 11 11 11 10 9 10 10 8 9 9 8 9 8 8 8 9 9 10 10 6 5 5 3
19 20 20 19 18 16 14 15 15 16 17 16 15 15 13 14 16 16 15 16 18 18 18 17 16 15 13 12 13 13 12 12 10 9 9 9 9 10 10 10 11 9 9 9 11 11 9 11 10 8 9 9 8 8 8 9 9 9 7 6 6 4
17 18 18 16 16 17 17 16 13 15 17 16 16 15 13 13 16 16 17 17 17 18 18 15 15 14 14 13 12 12 12 11 11 10 10 9 10 10 9 10 9 9 10 10 11 12 11 12 12 11 11 10 9 8 8 8 8 8 6 6 6 5
17 18 17 14 15 19 20 15 12 14 16 14 13 14 15 14 16 16 18 18 18 18 18 15 15 15 14 13 12 12 12 11 12 11 10 9 9 9 9 9 8 9 10 11 11 11 12 12 13 13 12 11 10 8 8 8 7 7 6 6 6 5
17 18 16 14 14 16 18 14 14 15 15 15 13 13 14 15 17 17 17 18 18 17 17 17 16 15 13 13 13 13 12 11 12 12 10 10 11 10 9 8 10 10 11 10 9 11 13 12 11 13 12 10 10 9 8 8 8 7 7 7 7 6
16 15 14 12 12 14 15 13 13 14 14 15 13 13 13 14 17 18 17 19 19 17 17 17 16 14 13 13 14 13 12 11 11 11 11 11 11 10 8 9 12 12 11 10 9 11 14 13 11 13 13 9 9 9 8 8 8 8 8 8 8 7
16 15 14 12 12 13 13 13 13 14 13 13 13 13 13 13 16 19 20 20 19 18 17 16 15 13 13 14 14 13 12 11 11 11 11 12 11 9 9 10 10 11 13 12 12 12 13 16 12 11 13 11 8 8 8 8 7 7 8 9 8 9
16 15 14 12 12 12 12 13 13 14 14 12 12 12 11 11 13 18 22 21 19 18 16 15 14 13 13 14 13 12 12 10 11 11 11 12 11 9 10 10 9 11 14 13 13 13 13 15 13 11 11 10 8 8 7 8 8 8 9 9 9 10
15 13 12 12 13 13 14 14 14 14 14 13 11 11 10 10 10 15 19 19 18 16 16 14 13 13 13 14 12 11 11 10 11 12 11 11 10 11 11 11 13 13 15 15 14 14 14 15 13 12 11 9 8 9 9 9 9 9 8 9 9 9
14 12 12 12 13 15 15 15 15 14 14 13 10 9 11 11 11 14 17 17 17 16 16 15 14 13 13 13 12 11 10 10 12 12 12 11 11 13 13 12 14 14 15 16 16 14 15 15 13 12 10 8 9 10 11 10 8 8 8 9 8 9
15 13 12 13 14 15 16 15 15 14 13 12 11 10 11 12 12 15 17 18 18 16 15 15 14 13 13 13 12 12 10 9 11 12 12 11 11 13 12 12 13 13 13 14 16 16 15 13 12 12 11 9 9 10 10 9 7 8 9 8 7 8
16 14 13 13 14 16 16 14 14 14 13 12 12 12 11 11 13 15 17 18 18 17 16 15 15 13 12 12 12 11 10 10 10 11 11 11 12 12 11 12 11 12 13 12 14 17 15 13 12 12 12 10 10 11 10 9 9 9 8 8 8 7
15 14 14 14 14 15 15 14 13 12 12 12 12 11 10 10 13 15 16 16 17 17 15 13 12 12 11 12 13 11 11 12 11 9 10 11 12 12 11 12 10 10 13 12 13 15 14 13 13 13 13 12 12 12 11 10 10 8 7 8 8 7
13 14 15 14 13 13 13 14 13 11 11 11 10 10 10 10 12 14 14 15 17 16 14 12 11 11 12 12 14 13 13 13 11 9 11 12 12 12 11 11 9 9 10 11 12 14 14 13 14 15 15 14 13 12 12 10 9 9 8 7 5 6
12 12 13 14 13 12 14 15 13 11 11 10 9 10 11 10 12 14 14 15 18 17 14 12 11 11 11 12 15 15 15 14 11 10 12 11 11 11 11 10 9 9 10 11 12 14 14 13 15 16 15 14 14 13 12 10 9 9 9 7 5 4
13 11 13 14 13 12 14 15 13 11 10 9 11 11 11 11 14 16 15 16 17 15 13 11 11 12 12 14 16 14 13 12 10 11 11 10 10 10 10 10 10 8 9 10 12 14 13 11 15 17 15 12 13 13 11 10 10 9 8 7 6 5
14 13 12 13 14 14 15 15 14 12 11 12 13 12 11 12 15 15 15 15 13 13 12 11 12 13 12 13 13 12 13 13 12 12 11 10 10 10 9 9 9 10 9 10 12 14 14 12 14 17 14 11 10 9 10 12 11 9 8 8 7 6
15 14 12 12 13 15 15 15 14 13 15 14 13 13 11 11 13 12 11 12 11 11 12 12 11 10 9 10 10 13 14 13 13 14 13 11 9 9 9 9 9 10 11 11 12 15 17 16 16 16 14 12 9 7 12 16 13 10 10 9 7 7
14 15 13 13 14 15 15 15 13 12 15 15 13 13 12 11 12 10 10 10 10 11 11 10 10 10 9 9 9 11 12 11 11 12 13 12 10 9 9 9 9 9 10 12 12 14 17 18 18 17 15 13 9 8 13 16 13 13 13 10 8 8
14 14 13 14 16 16 15 15 13 12 13 13 10 12 12 11 12 11 10 10 9 9 9 8 9 10 10 8 8 9 10 11 11 10 11 11 11 9 8 8 9 9 8 11 12 12 14 16 18 18 15 12 9 9 14 15 12 13 14 13 11 9
14 12 12 15 16 17 16 15 15 13 13 13 10 11 12 12 12 11 10 8 8 7 7 8 8 8 8 8 8 8 8 9 9 9 9 9 9 8 8 8 9 10 10 10 11 11 13 15 17 17 15 12 10 12 15 13 11 12 14 15 14 12
13 12 14 16 16 17 17 17 17 16 15 14 12 12 13 12 11 9 8 8 8 7 7 7 7 6 7 7 6 6 6 7 7 9 9 8 8 8 10 11 10 11 13 11 10 11 12 14 16 16 15 13 12 13 14 13 11 12 13 12 12 13
16 16 18 17 17 18 18 18 19 18 16 15 14 14 13 11 10 9 9 9 8 7 7 7 6 5 6 6 5 5 6 6 7 8 8 8 9 9 10 12 11 11 13 12 11 11 11 12 14 15 15 15 12 13 17 15 12 13 12 11 12 12
17 19 21 20 19 20 19 19 19 18 17 15 15 15 12 11 12 10 10 9 8 7 7 6 6 6 5 5 4 4 4 5 6 6 7 8 8 8 9 10 9 9 10 11 11 10 10 11 14 14 14 16 13 13 17 15 12 13 14 15 14 13
17 19 21 22 22 21 20 20 20 18 17 16 15 14 13 12 11 10 9 9 8 7 7 6 6 6 6 5 4 4 4 5 5 5 6 7 7 8 8 8 7 7 8 9 10 9 8 11 14 12 12 15 14 12 14 13 12 12 14 17 15 13
18 19 21 23 22 22 21 21 21 19 18 16 14 13 12 12 11 10 10 9 8 7 6 5 4 5 6 6 5 5 5 5 5 5 6 7 7 8 9 8 7 7 8 8 9 9 7 8 12 13 11 13 14 13 13 13 13 12 14 17 15 14
19 19 20 23 22 21 21 21 21 20 18 16 14 13 12 12 11 11 10 9 8 7 5 5 5 5 6 6 6 6 5 4 4 4 5 7 7 8 10 9 7 9 9 7 8 9 7 6 9 12 12 11 13 14 13 13 12 13 15 16 14 14
19 18 20 23 23 21 21 21 20 19 17 16 15 14 13 13 12 12 11 10 9 8 7 6 6 5 5 6 6 6 4 4 5 5 5 6 6 7 8 7 7 9 9 7 7 7 6 6 7 8 9 10 11 13 13 12 12 13 15 14 14 14
19 19 21 22 22 21 21 21 20 18 18 17 16 14 14 14 14 13 12 11 10 9 8 7 5 3 4 4 6 6 4 5 6 5 4 5 5 5 5 5 6 7 9 9 8 7 6 6 7 7 8 9 11 12 14 14 12 13 13 12 13 14
Wind_Direction
173 177 178 179 177 170 166 165 171 175 179 184 185 185 182 183 183 179 178 170 166 170 175 176 174 182 188 190 199 199 194 200 200 195 186 170 164 162 157 152 146 144 144 142 136 129 128 127 126 125 118 106 94 84 83 96 96 89 96 126 119 114
179 179 183 184 183 181 171 167 171 172 176 182 184 183 181 182 185 185 182 173 174 179 179 176 174 181 189 191 200 201 193 199 202 201 198 179 168 169 165 156 147 148 145 140 137 133 133 131 129 127 117 98 87 91 99 98 96 91 90 137 137 121
184 182 186 188 189 190 177 172 173 172 173 178 180 178 177 179 186 189 183 181 183 183 182 177 174 176 181 182 189 198 196 199 204 198 200 190 178 176 173 164 156 152 145 143 143 142 141 133 132 127 107 94 103 115 114 104 105 97 88 144 147 136
187 187 186 188 191 191 183 177 175 175 175 178 179 175 177 179 182 184 181 186 186 180 183 179 173 172 175 178 183 194 197 200 197 184 190 193 184 181 178 175 170 159 153 156 159 162 158 150 143 124 103 108 119 122 114 111 114 112 119 140 141 134
189 193 190 189 191 187 181 178 176 178 178 182 182 177 184 185 182 181 181 188 188 181 184 180 171 172 175 175 183 187 183 192 184 164 170 181 181 182 185 189 186 172 168 178 182 173 166 170 153 127 132 134 127 124 123 122 121 126 143 141 134 124
192 198 196 193 188 184 179 175 177 181 178 180 183 185 191 190 188 185 182 185 189 184 184 180 171 173 175 166 173 178 174 182 175 159 158 168 180 182 188 197 196 189 183 188 200 182 175 195 171 145 152 144 129 130 132 134 133 134 128 98 102 111
196 196 196 196 187 187 187 180 181 187 185 185 188 192 191 189 197 196 187 184 187 184 180 176 170 170 172 162 162 169 178 180 170 167 162 171 185 177 180 191 197 201 193 191 214 212 187 189 175 150 150 145 135 137 135 135 133 131 126 100 85 82
201 197 195 198 193 196 198 187 185 193 195 194 195 197 194 193 205 203 191 181 182 182 173 168 168 169 167 161 160 164 175 172 168 178 173 173 177 173 176 184 197 204 199 192 207 224 197 169 163 150 145 146 141 139 140 139 135 134 135 109 88 78
202 199 199 204 201 199 200 192 191 197 197 196 199 202 200 202 208 204 193 181 181 179 167 165 170 171 169 169 170 173 177 174 173 178 174 164 168 181 176 178 202 207 199 194 197 216 202 156 158 161 148 148 146 144 144 142 142 146 151 134 120 113
201 201 207 211 206 203 206 199 201 209 203 196 203 207 202 203 206 205 200 189 183 180 171 166 165 169 176 180 182 184 183 183 183 181 176 169 179 188 178 184 203 199 192 204 205 205 191 159 161 169 161 156 151 151 146 142 151 160 162 149 139 148
205 207 206 209 211 214 212 196 194 212 206 198 204 205 197 201 205 200 195 187 176 175 175 164 159 173 183 182 184 186 184 184 183 184 185 183 189 188 185 193 190 181 190 207 209 201 189 169 167 174 167 159 155 156 148 144 162 170 167 159 147 151
217 214 201 204 222 222 216 202 198 211 209 207 204 195 187 190 198 190 185 183 172 172 177 173 170 176 178 177 181 183 182 180 178 180 183 186 189 184 183 188 181 185 194 202 208 198 184 174 175 177 163 155 157 158 155 149 160 162 152 156 150 145
230 221 202 204 228 229 223 219 216 217 216 219 209 196 191 183 187 189 187 185 180 178 179 180 177 171 169 174 177 176 176 178 179 178 178 180 180 176 180 186 188 192 191 195 206 192 179 178 181 174 159 156 158 155 158 153 159 161 147 148 149 146
231 221 209 209 231 234 227 225 224 222 217 218 212 205 203 183 178 185 185 181 179 176 174 177 175 168 170 174 175 174 176 181 184 181 177 175 172 171 181 189 185 186 186 185 198 193 182 184 181 163 155 158 161 158 158 155 165 172 160 155 154 151
226 216 218 219 228 229 224 226 229 226 219 216 210 208 207 185 173 176 178 175 175 174 174 177 175 173 175 178 177 175 180 185 185 183 180 174 168 175 185 185 180 185 187 182 194 199 184 181 171 153 158 161 160 160 158 159 166 173 170 166 162 161
222 211 216 213 215 222 222 224 226 223 221 216 209 214 214 193 178 174 174 176 177 174 175 175 174 177 180 181 178 176 180 183 186 187 188 179 168 181 189 183 188 192 189 183 190 197 186 177 164 155 167 163 157 162 160 160 168 179 177 173 172 173
220 209 211 208 209 218 219 218 223 222 221 220 214 221 221 210 198 181 176 181 181 175 175 177 177 179 184 185 180 180 181 180 190 191 191 184 175 191 191 189 201 194 187 188 190 195 188 177 174 175 173 162 162 167 164 162 173 186 176 169 172 172
215 208 207 207 212 219 221 219 220 219 221 223 216 219 218 217 214 194 185 185 184 181 179 183 185 183 184 187 185 189 189 187 196 197 195 187 188 202 198 197 206 191 185 191 188 191 188 181 186 182 169 168 175 175 173 171 177 179 168 163 157 153
211 209 206 208 214 219 221 219 218 215 219 221 213 216 222 225 223 207 193 187 186 189 188 187 188 186 186 191 195 194 196 201 202 201 198 191 197 207 201 201 204 187 186 193 188 192 192 184 182 174 172 183 186 182 174 169 168 163 158 148 136 141
213 209 208 208 213 218 218 216 217 216 215 216 216 222 231 232 219 204 195 190 190 193 195 192 184 185 192 199 205 203 206 209 202 203 199 195 206 208 204 209 203 181 179 186 190 195 193 183 176 170 172 177 171 169 163 157 160 160 155 140 137 142
219 215 205 200 204 212 215 213 210 212 215 216 219 221 224 222 203 194 193 189 190 193 197 198 185 186 197 202 210 215 224 216 195 201 206 200 207 209 212 214 202 182 179 184 189 192 189 180 175 167 163 165 159 159 161 159 158 156 152 139 142 146
217 216 202 194 197 202 206 210 208 209 215 216 216 211 202 195 186 189 194 190 193 195 195 198 195 198 204 208 215 215 223 220 195 200 218 214 213 215 217 213 198 187 186 192 192 190 187 176 173 167 160 161 157 156 159 157 155 156 154 142 146 149
204 209 200 195 198 201 199 202 208 208 210 207 202 200 192 178 168 176 188 194 199 199 195 198 202 209 212 215 220 214 215 216 201 208 224 223 220 221 221 212 199 191 191 193 187 185 186 178 173 166 159 156 153 155 155 153 153 151 147 140 147 146
194 200 201 195 190 199 199 196 202 204 200 189 178 180 181 173 166 169 178 187 196 197 193 201 210 213 215 215 214 208 208 210 205 216 224 221 221 223 223 214 200 194 197 193 184 183 181 177 175 167 159 154 153 156 153 149 146 137 135 135 146 144
190 194 198 192 183 193 198 194 198 193 181 178 174 171 169 167 171 176 179 185 191 191 190 201 208 207 209 213 212 205 207 208 207 215 216 215 222 222 221 216 201 196 198 188 184 186 177 170 174 169 160 152 152 163 161 151 142 135 141 138 141 141
192 192 190 185 181 191 194 191 198 190 179 182 180 169 164 168 175 179 184 186 181 180 188 195 194 199 212 216 213 212 212 208 208 216 214 210 216 216 218 216 205 202 200 190 188 190 184 176 175 175 173 166 159 165 164 156 146 142 143 137 135 134
198 196 189 185 184 187 188 189 195 190 184 190 185 171 170 178 179 178 186 184 176 177 187 192 182 186 211 216 210 212 211 202 206 219 216 206 205 209 215 210 205 212 207 198 198 196 189 182 180 181 182 178 172 166 166 163 158 151 145 141 142 135
207 207 198 193 191 188 187 187 187 185 184 186 181 176 179 181 177 180 189 183 179 180 179 185 180 182 199 207 206 208 207 202 202 214 214 205 204 205 210 209 202 208 210 198 198 203 197 188 183 180 180 180 172 170 174 171 167 161 151 146 148 143
206 207 195 191 195 192 185 180 178 177 177 175 174 181 185 183 183 189 193 179 174 176 170 175 182 187 192 196 204 205 207 207 202 208 207 203 212 211 211 219 209 210 217 197 189 203 205 195 183 178 179 181 170 168 179 180 175 173 164 153 153 155
197 195 187 187 194 192 180 174 175 172 171 171 175 185 187 186 187 189 183 172 170 171 169 171 177 186 186 191 206 206 207 211 206 206 198 194 214 217 217 222 215 219 225 207 193 200 199 190 182 181 184 185 181 176 181 189 189 183 174 161 158 160
191 192 188 185 189 187 178 174 176 174 171 173 179 184 185 180 177 175 171 169 168 167 167 169 174 182 184 187 202 208 208 212 212 208 197 197 208 211 221 226 219 222 223 214 209 202 190 184 180 182 187 188 189 183 181 187 191 188 180 166 161 162
190 193 188 182 184 185 180 177 178 177 174 179 183 179 175 172 170 168 166 166 164 163 165 169 173 180 184 183 194 212 213 213 222 218 208 211 209 203 218 225 222 220 214 211 214 201 186 179 177 181 189 193 195 186 186 189 184 186 182 165 163 166
190 192 183 177 180 182 180 179 180 180 181 185 182 172 168 167 163 160 162 164 160 156 162 170 174 180 184 185 194 210 213 214 225 224 216 214 205 204 217 223 224 219 208 211 213 199 178 164 172 180 180 191 201 193 189 190 182 186 179 162 162 168
192 194 179 171 176 179 178 181 182 182 184 185 175 165 168 165 156 154 159 158 151 150 156 159 166 178 183 188 198 206 213 217 219 216 220 220 208 208 217 217 217 217 214 218 217 211 200 173 180 191 185 191 203 198 192 194 192 189 172 159 162 169
192 192 174 169 175 177 179 182 183 183 182 181 171 162 165 165 157 152 153 148 143 144 145 148 167 186 187 193 204 209 213 219 224 219 224 230 224 221 220 211 210 214 212 216 222 219 216 205 197 198 196 196 202 202 196 193 192 186 171 161 165 172
189 187 175 174 175 177 181 181 181 182 178 174 169 161 159 161 157 151 148 145 143 144 153 167 183 190 182 190 204 208 215 231 236 229 229 232 230 235 230 213 213 218 208 205 218 218 212 219 214 198 192 194 202 205 197 189 184 178 175 169 167 171
184 183 180 179 177 179 181 180 181 181 176 172 167 161 158 159 159 153 149 151 155 158 170 182 190 191 180 186 194 188 194 233 236 226 229 228 216 231 236 216 220 224 211 203 205 206 204 212 219 208 192 194 203 203 194 190 186 178 176 174 170 171